Flag for Australia Weather past 2 weeks in Traralgon, Victoria, Australia

Now
74 °F

Mild.


Feels Like: 77 °F
Forecast: 56 / 62 °F
Wind: 2 mph from East

Location: Latrobe Valley Airport

Current Time: Oct 22, 2014 at 9:01:27 PM

Latest Report: Oct 22, 2014 at 7:00 PM


Visibility: N/A

Pressure: 29.97 "Hg

Humidity: 58%

Dew point: 59 °F

Location of TraralgonLocation

Historic Weather in Traralgon — Graph

°F

Traralgon temperature yesterday

Maximum temperature yesterday: 70 °F (at 3:00 PM)
Minimum temperature yesterday: 47 °F (at 6:00 AM)
Average temperature yesterday: 58 °F

Past Weeks' High & Low Weather Summary

 TemperatureHumidityPressure
High87 °F (Oct 22, 4:00 PM)100% (Oct 9, 3:00 AM)30.47 "Hg (Oct 9, 3:00 AM)
Low39 °F (Oct 15, 7:00 AM)24% (Oct 19, 4:00 PM)29.65 "Hg (Oct 12, 6:00 PM)
Average56 °F79%30.12 "Hg
* Reported Oct 7 7:00 PM — Oct 22 7:00 PM, Traralgon, Weather by CustomWeather, © 2014

Note: Actual official high and low records may vary slightly from our data, if they occured in-between our weather recording intervals... More about our weather records

Advertising

Traralgon weather history for previous 24 hours

 ConditionsComfort  
Time TempWeatherWind HumidityBarometerVisibility
7:00 PM
Oct 22
74 °FMild.2 mph58%29.97 "HgN/A
6:00 PM83 °FOvercast.5 mph28%29.97 "HgN/A
4:00 PM87 °FPleasantly warm.9 mph28%29.99 "HgN/A
3:00 PM86 °FWarm.5 mph43%30.01 "HgN/A
1:00 PM80 °FWarm.3 mph43%30.06 "HgN/A
12:00 PM77 °FMild.3 mph55%30.09 "HgN/A
10:00 AM67 °FMild.5 mph72%30.12 "HgN/A
9:00 AM59 °FCool.3 mph86%30.13 "HgN/A
7:00 AM44 °FQuite cool.No wind100%30.15 "HgN/A
6:00 AM44 °FPassing clouds.No wind100%30.15 "HgN/A
4:00 AM46 °FCool.No wind100%30.16 "HgN/A
3:00 AM48 °FPassing clouds.5 mph100%30.18 "HgN/A
1:00 AM50 °FCool.3 mph99%30.23 "HgN/A
12:00 AM51 °FCool.5 mph99%30.25 "HgN/A
10:00 PM
Oct 21
52 °FCool.6 mph89%30.29 "HgN/A
9:00 PM56 °FCool.5 mph81%30.28 "HgN/A
Weather by CustomWeather, © 2014

See weather overviewHow to use our weather pages